map of SOZ home
Great Circle Mapper logo
SOZ - Airport
Location
City:  Solenzara, France
ICAO / IATA:LFKS / SOZ

Details
Type:Airport (Aerodrome, Airfield)
Use:Military
Latitude:4155'35"N (41.926389)
Longitude:924'19"E (9.405278)
Elevation:28 ft (9 m)
Variation:2.1E (WMM2015 magnetic declination)
Runways:1
Longest:8619 × 148 ft (2627 × 45 m)

Time
Time Zone:UTC+1 (DST+2)
Local Time:

Weather
METAR:LFKS 211100Z AUTO VRB02KT 9999 NSC 16/11 Q1026
TAF:LFKS 210800Z 2109/2209 27006KT CAVOK= TAF LFMY 210800Z 2109/2209 34015G25KT CAVOK
BECMG 2118/2121 02005KT

Related Locations
Nearby:
Farthest:CHT: 12114 mi / 19496 km
Waitangi [Tuuta], Chatham Islands, NZ

Find:

   beyond  
but within

Other Information
Maps:
NOTAMs:
Links:
Sources:

  
flag of France   

Sectional Chart

Flight Planning
at skyvector.com

Satellite Image

Google Maps Satellite View

 

Copyright © 2004-2014 Karl L. Swartz. All rights reserved.
The Great Circle Mapper name and logo are trademarks of the Great Circle Mapper.
All other trademarks mentioned herein belong to their respective owners.
Please see credits for attibutions and further copyright information.

  Follow gcmap on Facebook Follow gcmap on Twitter

hCard Microformat

Geo Microformat